Regional Weather Roundup
Issued by NWS

Home | Current Version | Previous Version | Text Only | Print | Product List | Glossary On
Versions: 1 2 3 4 5 6 7 8 9 10 11 12 13 14 15 16 17 18 19 20 21 22 23 24 25 26 27 28 29 30 31 32 33 34 35 36 37 38 39 40 41 42 43 44 45 46 47 48 49 50
000
ASUS43 KMKX 301810
RWRWI

WISCONSIN REGIONAL WEATHER ROUNDUP
NATIONAL WEATHER SERVICE MILWAUKEE/SULLIVAN WI
1200 PM CST FRI JAN 30 2015

NOTE: "FAIR" INDICATES FEW OR NO CLOUDS BELOW 12,000 FEET WITH NO
SIGNIFICANT WEATHER AND/OR OBSTRUCTIONS TO VISIBILITY.

WIZ001-002-006>008-014>016-023>028-301900-
NORTHWEST WISCONSIN

CITY           SKY/WX    TMP DP  RH WIND       PRES   REMARKS
SUPERIOR ARPT  MOSUNNY   13   3  64 SW6       30.46F WCI   4
6HR MIN TEMP:   1; 6HR MAX TEMP:  13;

ASHLAND        CLOUDY    14   3  61 SW8       30.45F WCI   3
6HR MIN TEMP:   4; 6HR MAX TEMP:  14;

HAYWARD        CLOUDY    11   2  67 SW8       30.43F WCI  -1
6HR MIN TEMP:  -4; 6HR MAX TEMP:  11;

SIREN          PTSUNNY   13   2  64 SW7       30.45F WCI   2
6HR MIN TEMP:  -1; 6HR MAX TEMP:  13;

CUMBERLAND     MOSUNNY   10   1  67 S7        30.43F WCI   0
RICE LAKE      MOSUNNY   11   2  66 S5        30.48F WCI   3
6HR MIN TEMP:   1; 6HR MAX TEMP:  11;

CHETEK         PTSUNNY   12   2  65 SW3       30.47F
6HR MIN TEMP:   1; 6HR MAX TEMP:  12;

LADYSMITH      CLOUDY    14   5  68 SW6       30.46F WCI   5
6HR MIN TEMP:   3; 6HR MAX TEMP:  14;

EAU CLAIRE     CLOUDY    13   4  67 S6        30.48F WCI   4
6HR MIN TEMP:   4; 6HR MAX TEMP:  13;

MENOMONIE      PTSUNNY   16   5  63 S7        30.48F WCI   6
6HR MIN TEMP:   8; 6HR MAX TEMP:  16;

NEW RICHMOND   MOSUNNY   15   6  67 SW5       30.47F WCI   7
6HR MIN TEMP:   6; 6HR MAX TEMP:  15;

OSCEOLA        PTSUNNY   15   6  66 S7        30.50F WCI   6
6HR MIN TEMP:   7; 6HR MAX TEMP:  15;

$$

WIZ003>005-009-010-017-018-301900-
NORTH CENTRAL WISCONSIN

CITY           SKY/WX    TMP DP  RH WIND       PRES   REMARKS
MANITOWISH WTR MOSUNNY   13   2  63 S6        30.37F WCI   3
6HR MIN TEMP:   9; 6HR MAX TEMP:  13;

ARBOR VITAE    PTSUNNY   16   6  62 SW5       30.38F WCI   9
6HR MIN TEMP:  11; 6HR MAX TEMP:  16;

WOODRUFF       PTSUNNY   16   6  62 SW5       30.38F WCI   9
6HR MIN TEMP:  11; 6HR MAX TEMP:  16;

RHINELANDER    CLOUDY    14   4  64 W7        30.39F WCI   4
6HR MIN TEMP:   9; 6HR MAX TEMP:  14;

EAGLE RIVER    PTSUNNY   13   2  60 SW5       30.37F WCI   5
6HR MIN TEMP:   9; 6HR MAX TEMP:  13;

LAND O LAKES   PTSUNNY   14   4  64 CALM      30.37F
6HR MIN TEMP:   9; 6HR MAX TEMP:  14;

PHILLIPS       PTSUNNY   13   3  64 SW7       30.40F WCI   3
6HR MIN TEMP:   6; 6HR MAX TEMP:  13;

TOMAHAWK       CLOUDY    15   3  59 CALM      30.42F
6HR MIN TEMP:   9; 6HR MAX TEMP:  15;

MEDFORD        MOSUNNY   13   3  66 SW6       30.43F WCI   3
6HR MIN TEMP:   3; 6HR MAX TEMP:  13;

MERRILL        CLOUDY    15   4  61 SW6       30.44F WCI   6
6HR MIN TEMP:  11; 6HR MAX TEMP:  15;

$$

WIZ029-030-035-036-043>047-301900-
CENTRAL WISCONSIN

CITY           SKY/WX    TMP DP  RH WIND       PRES   REMARKS
WAUSAU         PTSUNNY   14   3  61 SW7       30.44F WCI   4
6HR MIN TEMP:   9; 6HR MAX TEMP:  15;

MOSINEE        SUNNY     16   7  67 SW5       30.47F WCI   9
MARSHFIELD     PTSUNNY   14   5  67 SW5       30.46F WCI   6
6HR MIN TEMP:   6; 6HR MAX TEMP:  14;

STEVENS POINT  PTSUNNY   15   4  60 S3        30.47F
6HR MIN TEMP:   4; 6HR MAX TEMP:  16;

WAUPACA        PTSUNNY   22   6  51 CALM      30.50F
6HR MIN TEMP:  15; 6HR MAX TEMP:  24;

WAUTOMA        CLOUDY    21   5  50 CALM      30.50F
6HR MIN TEMP:   3; 6HR MAX TEMP:  21;

WISC RAPIDS    MOSUNNY   17   4  56 CALM      30.49F
6HR MIN TEMP:   8; 6HR MAX TEMP:  18;

CAMP DOUGLAS   CLOUDY    18   9  68 W3        30.50F
$$

WIZ011>013-019>022-031-037>040-048>050-301900-
NORTHEAST WISCONSIN

CITY           SKY/WX    TMP DP  RH WIND       PRES   REMARKS
ANTIGO         PTSUNNY   13   4  68 SW3       30.41F
6HR MIN TEMP:  10; 6HR MAX TEMP:  13;

SHAWANO        PTSUNNY   19   5  54 CALM      30.49F
6HR MIN TEMP:  15; 6HR MAX TEMP:  20;

OCONTO         MOSUNNY   18   5  56 MISG      30.50F
6HR MIN TEMP:  12; 6HR MAX TEMP:  18;

STURGEON BAY   SUNNY     14   1  57 NW3       30.51F
6HR MIN TEMP:  10; 6HR MAX TEMP:  14;

GREEN BAY      PTSUNNY   19   7  59 CALM      30.50F
6HR MIN TEMP:  13; 6HR MAX TEMP:  20;

MANITOWOC      FAIR      22   8  55 N5        30.51F WCI  16
6HR MIN TEMP:  13; 6HR MAX TEMP:  22;

APPLETON       PTSUNNY   18   3  53 VRB5      30.50F WCI  11
CLINTONVILLE   CLOUDY    19   5  53 SW3       30.49F
OSHKOSH        PTSUNNY   19   7  59 W8        30.50F WCI   9
6HR MIN TEMP:  12; 6HR MAX TEMP:  20;

$$

WIZ032>034-041-042-053>061-301900-
SOUTHWEST WISCONSIN

CITY           SKY/WX    TMP DP  RH WIND       PRES   REMARKS
LA CROSSE      CLOUDY    19   5  54 CALM      30.54F
6HR MIN TEMP:  10; 6HR MAX TEMP:  20;

SPARTA         PTSUNNY   19   7  60 W3        30.52F
6HR MIN TEMP:   4; 6HR MAX TEMP:  19;

VIROQUA        MOSUNNY   18   9  66 CALM      30.48F
6HR MIN TEMP:   8; 6HR MAX TEMP:  18;

BOSCOBEL       PTSUNNY   22   8  55 SW6       30.53F WCI  14
6HR MIN TEMP:  12; 6HR MAX TEMP:  22;

PRAIRIE DU CHI PTSUNNY   21   5  50 CALM      30.54F
6HR MIN TEMP:  14; 6HR MAX TEMP:  21;

PLATTEVILLE    SUNNY     20  11  66 CALM      30.50F
6HR MIN TEMP:  11; 6HR MAX TEMP:  21;

$$

WIZ056-057-062-063-064-067-068-301900-
SOUTH CENTRAL WISCONSIN

CITY           SKY/WX    TMP DP  RH WIND       PRES   REMARKS
REEDSBURG      PTSUNNY   19   8  64 W3        30.50F
6HR MIN TEMP:  11; 6HR MAX TEMP:  19;

BARABOO/DELLS  FAIR      19   7  61 CALM      30.49F
6HR MIN TEMP:  10; 6HR MAX TEMP:  19;

LONE ROCK      PTSUNNY   20   7  57 CALM      30.52F
6HR MIN TEMP:  13; 6HR MAX TEMP:  20;

MINERAL POINT  MOSUNNY   23  10  58 W3        30.48F
MADISON        PTSUNNY   21   9  59 CALM      30.50F
6HR MIN TEMP:  11; 6HR MAX TEMP:  21;

MIDDLETON      MOSUNNY   23   9  55 CALM      30.51F
6HR MIN TEMP:  14; 6HR MAX TEMP:  23;

WATERTOWN      MOSUNNY   22   9  58 W3        30.50F
6HR MIN TEMP:  13; 6HR MAX TEMP:  22;

MONROE         SUNNY     23  12  63 W3        30.48F
JANESVILLE     MOSUNNY   25   9  50 VRB5      30.51F WCI  19
$$

WIZ051-052-058>065-066-070>072-301900-
SOUTHEAST WISCONSIN

CITY           SKY/WX    TMP DP  RH WIND       PRES   REMARKS
MILWAUKEE      MOSUNNY   25   7  46 CALM      30.50F
6HR MIN TEMP:  18; 6HR MAX TEMP:  25;

WAUKESHA       SUNNY     19   7  58 CALM      30.55R
MILWAUKEE/TIMM SUNNY     23   5  46 MISG      30.51F
RACINE         PTSUNNY   25   9  50 VRB6      30.52F WCI  18
6HR MIN TEMP:  17; 6HR MAX TEMP:  26;

BURLINGTON     SUNNY     22   7  53 W3        30.51S
6HR MIN TEMP:  10; 6HR MAX TEMP:  22;

KENOSHA        SUNNY     25   8  48 W8        30.51F WCI  16
6HR MIN TEMP:  17; 6HR MAX TEMP:  25;

FOND DU LAC    PTSUNNY   20   6  55 CALM      30.50F
6HR MIN TEMP:  11; 6HR MAX TEMP:  21; 6HR PCP: TRACE;

SHEBOYGAN      MOSUNNY   21   9  59 CALM      30.49F
6HR MIN TEMP:  10; 6HR MAX TEMP:  21;

WEST BEND      MOSUNNY   23   7  50 W5        30.48F WCI  17
JUNEAU         PTSUNNY   20   8  59 CALM      30.51S
6HR MIN TEMP:  11; 6HR MAX TEMP:  20;

$$

LSZ147-162-301900-
LAKE SUPERIOR

STATION/POSITION TIME  TEMP    WIND        PRES    WAVE
                       AIR SEA DIR/SP/G            HT/PER
                 (UTC) (F)     (DEG/KT/KT) (MB)    (FT/S)
DEVILS ISLAND    1800   14     230/ 11/ 13 1032.3F
PORT WING        1740   12     190/  5/  9 1031.5F
SAXON HARBOR     1700   14      CALM  /  7 1032.2F
$$

LMZ867-665-643>646-301900-
LAKE MICHIGAN

STATION/POSITION TIME  TEMP    WIND        PRES    WAVE
                       AIR SEA DIR/SP/G            HT/PER


USA.gov is the U.S. government's official web portal to all federal, state and local government web resources and services.